sat.trackr.live / text

‹ back to catalog

STARLINK-35408

NORAD 65859 · 2025-223F

PAYLOAD ACTIVE UNKNOWN

§ Identity

Operator
Country
US
Launch date
2025-10-03
Launch site
AFWTR
Launch vehicle
Mass (kg)
RCS (m²)

Purposes: comms

External: N2YO · Heavens-Above · Gunter

§ Orbital elements

Epoch: 2026-09-20T04:23:14.781408Z

Period
93.85 min
Inclination
53.1572°
Eccentricity
0.0001476
Mean motion
15.34394448 rev/d
Perigee alt
461.7 km
Apogee alt
463.7 km
Semi-major
6,840.9 km
B*
5.1101e-4
RAAN
107.2184°
Arg perigee
73.8738°
Mean anomaly
286.2427°
Rev number
5,403

§ Raw data

STARLINK-354081 65859U 25223F   26263.18280997  .00016925  00000+0  51101-3 0  99932 65859  53.1572 107.2184 0001476  73.8738 286.2427 15.34394448 54033

JSON: /api/v1/satellites/65859 · /tle

For live sub-satellite position, see the globe view (requires WebGL).

§ Visibility from observer

Set your observer location to see the next 7 days of passes ≥ 10°. The values pass through the URL so the page stays shareable.

No JS? Fill the form by hand. The geolocation button needs JavaScript.